K5AJS Weather Reports


time (UTC)temp
C
wind
direction
speed
KPH
gust
KPH
rain 1hr
cm
rain 24hr
cm
rain mn
cm
humidity
%
barometer
mb
20260510104649 23 0 0.0 0.0 0.00 0.00 0.00 97 1011.2
20260510104150 23 0 0.0 0.0 0.00 0.00 0.00 97 1011.1
20260510103649 23 91 0.0 1.6 0.00 0.00 0.00 97 1011.1
20260510103150 23 95 0.0 0.0 0.00 0.00 0.00 96 1011.0
20260510102649 23 0 0.0 0.0 0.00 0.00 0.00 96 1011.1
20260510102150 23 331 0.0 0.0 0.00 0.00 0.00 96 1011.1
20260510101649 23 302 0.0 0.0 0.00 0.00 0.00 96 1011.0
20260510101150 23 45 3.2 4.8 0.00 0.00 0.00 96 1011.0
20260510100650 23 126 0.0 0.0 0.00 0.00 0.00 96 1011.0
20260510100150 23 23 1.6 3.2 0.00 0.00 0.00 96 1010.9
20260510095649 23 96 0.0 0.0 0.00 0.00 0.00 96 1010.9
20260510095150 23 108 0.0 1.6 0.00 0.00 0.00 96 1010.9
20260510094650 23 0 0.0 0.0 0.00 0.00 0.00 96 1011.0
20260510094149 23 0 0.0 0.0 0.00 0.00 0.00 96 1011.0
20260510093649 23 0 0.0 0.0 0.00 0.00 0.00 96 1011.1
20260510093150 23 0 0.0 0.0 0.00 0.00 0.00 96 1011.2
20260510092650 23 166 0.0 3.2 0.00 0.00 0.00 96 1011.2
20260510092150 22 141 0.0 1.6 0.00 0.00 0.00 96 1011.3
20260510091649 22 95 1.6 3.2 0.00 0.00 0.00 96 1011.3
20260510091157 22 0 0.0 0.0 0.00 0.00 0.00 96 1011.4
20260510090651 22 269 0.0 0.0 0.00 0.00 0.00 96 1011.4
20260510090149 22 0 0.0 0.0 0.00 0.00 0.00 96 1011.3
20260510085656 22 0 0.0 0.0 0.00 0.00 0.00 96 1011.3
20260510085149 22 0 0.0 0.0 0.00 0.00 0.00 96 1011.3
20260510084649 22 0 0.0 0.0 0.00 0.00 0.00 96 1011.3
20260510084150 22 0 0.0 0.0 0.00 0.00 0.00 96 1011.3
20260510083651 22 0 0.0 0.0 0.00 0.00 0.00 96 1011.2
20260510083149 22 0 0.0 0.0 0.00 0.00 0.00 96 1011.2
20260510082649 22 0 0.0 0.0 0.00 0.00 0.00 95 1011.1
20260510082149 22 0 0.0 0.0 0.00 0.00 0.00 95 1011.0
20260510081649 22 0 0.0 0.0 0.00 0.00 0.00 95 1011.1
20260510081150 22 0 0.0 0.0 0.00 0.00 0.00 95 1011.0
20260510080649 22 75 0.0 1.6 0.00 0.00 0.00 95 1010.9
20260510080151 22 0 0.0 0.0 0.00 0.00 0.00 95 1010.8
20260510075650 22 99 3.2 3.2 0.00 0.00 0.00 95 1010.8
20260510075150 22 0 0.0 0.0 0.00 0.00 0.00 95 1010.8
20260510074649 22 167 0.0 1.6 0.00 0.00 0.00 95 1010.8
20260510074149 22 91 1.6 3.2 0.00 0.00 0.00 95 1010.8
20260510073649 22 88 0.0 0.0 0.00 0.00 0.00 95 1010.8
20260510073149 22 111 0.0 1.6 0.00 0.00 0.00 95 1010.8
20260510072649 22 94 0.0 0.0 0.00 0.00 0.00 95 1010.8
20260510072149 22 96 3.2 3.2 0.00 0.00 0.00 95 1010.8
20260510071649 22 152 0.0 0.0 0.00 0.00 0.00 94 1010.7
20260510071150 22 87 0.0 1.6 0.00 0.00 0.00 94 1010.7
20260510070649 23 117 0.0 1.6 0.00 0.00 0.00 94 1010.9
20260510070149 23 291 0.0 0.0 0.00 0.00 0.00 94 1011.0
20260510065651 23 72 1.6 1.6 0.00 0.00 0.00 94 1011.0
20260510065149 23 106 0.0 3.2 0.00 0.00 0.00 94 1011.0
20260510064650 23 108 1.6 3.2 0.00 0.00 0.00 94 1011.1
20260510064149 23 0 0.0 0.0 0.00 0.00 0.00 93 1011.2
20260510063649 23 105 0.0 1.6 0.00 0.00 0.00 93 1011.1
20260510063150 23 104 3.2 3.2 0.00 0.00 0.00 93 1011.2
20260510062649 23 98 3.2 4.8 0.00 0.00 0.00 93 1011.2
20260510062149 23 102 1.6 4.8 0.00 0.00 0.00 93 1011.2
20260510061649 23 136 0.0 1.6 0.00 0.00 0.00 93 1011.2
20260510061149 23 92 0.0 0.0 0.00 0.00 0.00 93 1011.3
20260510060649 23 0 0.0 0.0 0.00 0.00 0.00 92 1011.3
20260510060149 23 113 1.6 3.2 0.00 0.00 0.00 92 1011.3
20260510055649 23 120 0.0 0.0 0.00 0.00 0.00 92 1011.3
20260510055149 23 130 1.6 3.2 0.00 0.00 0.00 92 1011.3
20260510054649 23 109 1.6 3.2 0.00 0.00 0.00 92 1011.3
20260510054149 23 111 0.0 0.0 0.00 0.00 0.00 91 1011.3
20260510053649 23 84 0.0 1.6 0.00 0.00 0.00 90 1011.4
20260510053149 23 93 0.0 3.2 0.00 0.00 0.00 90 1011.5
20260510052649 23 104 3.2 3.2 0.00 0.00 0.00 90 1011.6
20260510052149 23 110 3.2 4.8 0.00 0.00 0.00 89 1011.6
20260510051649 23 85 1.6 3.2 0.00 0.00 0.00 88 1011.6
20260510051149 23 109 3.2 3.2 0.00 0.00 0.00 88 1011.7
20260510050650 23 109 1.6 3.2 0.00 0.00 0.00 87 1011.7
20260510050149 23 103 1.6 3.2 0.00 0.00 0.00 86 1011.7
20260510045649 23 101 1.6 3.2 0.00 0.00 0.18 86 1011.7
20260510045149 23 106 1.6 4.8 0.00 0.00 0.18 85 1011.7
20260510044650 23 107 3.2 4.8 0.00 0.00 0.18 85 1011.6
20260510044149 23 0 0.0 0.0 0.00 0.00 0.18 85 1011.5
20260510043649 23 109 0.0 0.0 0.00 0.00 0.18 84 1011.5
20260510043149 23 0 0.0 0.0 0.00 0.00 0.18 84 1011.6
20260510042649 23 118 1.6 3.2 0.00 0.00 0.18 84 1011.7
20260510042149 23 106 1.6 4.8 0.00 0.00 0.18 83 1011.6
20260510041656 23 99 0.0 1.6 0.00 0.00 0.18 83 1011.5
20260510041149 23 122 1.6 3.2 0.00 0.00 0.18 82 1011.6
20260510040649 23 117 1.6 3.2 0.00 0.00 0.18 81 1011.6
20260510040150 23 112 0.0 3.2 0.00 0.00 0.18 80 1011.7
20260510035649 23 92 0.0 1.6 0.00 0.00 0.18 79 1011.8
20260510035150 23 142 1.6 3.2 0.00 0.00 0.18 79 1011.8
20260510034650 23 113 3.2 4.8 0.00 0.00 0.18 79 1011.8
20260510034150 23 83 1.6 3.2 0.00 0.00 0.18 80 1011.7
20260510033649 23 112 1.6 6.4 0.00 0.00 0.18 81 1011.6
20260510033149 23 107 1.6 3.2 0.00 0.00 0.18 82 1011.6
20260510032649 23 89 1.6 4.8 0.00 0.00 0.18 86 1011.5
20260510032149 23 96 1.6 3.2 0.00 0.00 0.18 87 1011.4
20260510031649 23 149 0.0 0.0 0.00 0.00 0.18 88 1011.2
20260510031150 23 147 0.0 3.2 0.00 0.00 0.18 89 1011.2
20260510030649 22 90 0.0 3.2 0.00 0.00 0.18 90 1011.0
20260510030149 22 0 0.0 0.0 0.00 0.00 0.18 91 1010.7
20260510025649 22 87 1.6 6.4 0.00 0.00 0.18 91 1010.7
20260510025151 22 0 0.0 0.0 0.00 0.00 0.18 91 1010.7
20260510024649 22 79 0.0 3.2 0.00 0.00 0.18 92 1010.5
20260510024149 22 101 0.0 1.6 0.00 0.00 0.18 92 1010.4
20260510023651 23 0 0.0 0.0 0.00 0.00 0.18 92 1010.3
20260510023149 23 0 0.0 0.0 0.00 0.00 0.18 92 1010.2
20260510022649 23 0 0.0 0.0 0.00 0.00 0.18 92 1010.2
20260510022149 23 0 0.0 0.0 0.00 0.00 0.18 92 1010.0
20260510021649 23 146 0.0 1.6 0.08 0.00 0.18 91 1010.0
20260510021149 23 0 0.0 0.0 0.18 0.00 0.18 91 1009.9
20260510020649 23 123 0.0 3.2 0.18 0.00 0.18 91 1009.8
20260510020149 23 0 0.0 0.0 0.18 0.00 0.20 90 1009.7
20260510015649 23 250 0.0 1.6 0.18 0.00 0.20 89 1009.5
20260510015149 23 176 0.0 0.0 0.18 0.00 0.20 89 1009.5
20260510014649 23 110 1.6 3.2 0.18 0.00 0.20 90 1009.4
20260510014149 23 114 1.6 3.2 0.18 0.00 0.20 89 1009.3
20260510013649 23 86 0.0 1.6 0.20 0.00 0.20 89 1009.1
20260510013149 23 256 0.0 1.6 0.20 0.00 0.20 88 1008.9
20260510012649 23 0 0.0 0.0 0.20 0.00 0.20 86 1008.6
20260510012149 23 0 0.0 0.0 0.13 0.00 0.20 84 1008.5
20260510011649 24 9 0.0 1.6 0.13 0.00 0.20 84 1008.6
20260510011149 24 105 0.0 1.6 0.13 0.00 0.18 82 1008.7
20260510010649 24 245 0.0 1.6 0.13 0.00 0.13 80 1008.7
20260510010149 25 320 0.0 1.6 0.03 0.00 0.08 77 1009.0
20260510005652 25 272 1.6 3.2 0.03 0.00 0.03 74 1009.2
20260510005149 25 250 0.0 1.6 0.03 0.00 0.03 71 1008.9
20260510004649 26 354 1.6 1.6 0.03 0.00 0.03 70 1008.9
20260510004149 26 333 0.0 1.6 0.00 0.00 0.00 67 1008.7
20260510003649 26 27 0.0 1.6 0.00 0.00 0.00 65 1008.6
20260510003150 26 12 3.2 6.4 0.00 0.00 0.00 62 1009.0
20260510002649 27 36 3.2 8.0 0.00 0.00 0.00 61 1009.1
20260510002149 27 50 3.2 8.0 0.00 0.00 0.00 59 1008.7
20260510001650 28 30 4.8 9.7 0.00 0.00 0.00 61 1008.7
20260510001149 30 31 3.2 8.0 0.00 0.00 0.00 61 1008.5
20260510000650 30 58 4.8 11.3 0.00 0.00 0.00 60 1008.5
20260510000150 31 7 0.0 3.2 0.00 0.00 0.00 59 1008.1
20260509235650 31 94 1.6 4.8 0.00 0.00 0.00 58 1008.0
20260509235149 31 82 0.0 3.2 0.00 0.00 0.00 58 1007.8
20260509234649 31 331 0.0 1.6 0.00 0.00 0.00 59 1007.9
20260509234150 32 324 1.6 4.8 0.00 0.00 0.00 58 1008.0
20260509233649 32 297 0.0 1.6 0.00 0.00 0.00 60 1007.9
20260509233150 32 330 0.0 1.6 0.00 0.00 0.00 58 1007.9
20260509232649 32 285 0.0 3.2 0.00 0.00 0.00 59 1008.0
20260509232149 32 92 1.6 3.2 0.00 0.00 0.00 58 1007.9
20260509231650 32 104 0.0 3.2 0.00 0.00 0.00 58 1007.9
20260509231149 32 119 0.0 0.0 0.00 0.00 0.00 56 1008.0
20260509230650 32 0 0.0 0.0 0.00 0.00 0.00 56 1008.0
20260509230150 32 145 0.0 0.0 0.00 0.00 0.00 55 1008.0
20260509225650 33 295 0.0 1.6 0.00 0.00 0.00 55 1007.9
20260509225149 33 0 0.0 0.0 0.00 0.00 0.00 53 1007.9
20260509224649 33 90 0.0 3.2 0.00 0.00 0.00 54 1007.8
20260509224149 33 15 1.6 3.2 0.00 0.00 0.00 53 1007.7
20260509223650 34 121 3.2 4.8 0.00 0.00 0.00 51 1007.7
20260509223149 33 324 0.0 1.6 0.00 0.00 0.00 57 1007.7
20260509222649 33 321 0.0 1.6 0.00 0.00 0.00 56 1007.7
20260509222149 33 308 0.0 3.2 0.00 0.00 0.00 58 1007.6
20260509221649 33 97 3.2 4.8 0.00 0.00 0.00 55 1007.6
20260509221149 33 36 1.6 3.2 0.00 0.00 0.00 56 1007.7
20260509220649 33 120 3.2 4.8 0.00 0.00 0.00 56 1007.7
20260509220151 33 0 0.0 0.0 0.00 0.00 0.00 57 1007.7
20260509215649 33 5 0.0 0.0 0.00 0.00 0.00 59 1007.7
20260509215149 33 106 0.0 0.0 0.00 0.00 0.00 58 1007.7
20260509214649 34 4 1.6 4.8 0.00 0.00 0.00 59 1007.7
20260509214149 34 15 1.6 6.4 0.00 0.00 0.00 58 1007.7
20260509213649 34 123 0.0 3.2 0.00 0.00 0.00 56 1007.7
20260509213149 34 263 0.0 3.2 0.00 0.00 0.00 58 1007.7
20260509212649 34 353 3.2 4.8 0.00 0.00 0.00 58 1007.7
20260509212149 33 57 0.0 1.6 0.00 0.00 0.00 60 1007.7
20260509211650 33 298 0.0 1.6 0.00 0.00 0.00 61 1007.8
20260509211152 33 251 0.0 1.6 0.00 0.00 0.00 60 1007.8
20260509210650 33 346 0.0 0.0 0.00 0.00 0.00 62 1007.9
20260509210150 33 338 1.6 3.2 0.00 0.00 0.00 59 1007.9
20260509205649 33 34 1.6 4.8 0.00 0.00 0.00 60 1008.0
20260509205149 33 97 0.0 1.6 0.00 0.00 0.00 61 1008.0
20260509204649 33 356 1.6 3.2 0.00 0.00 0.00 59 1008.1
20260509204150 33 46 1.6 3.2 0.00 0.00 0.00 60 1008.2
20260509203649 33 102 0.0 1.6 0.00 0.00 0.00 58 1008.3
20260509203149 33 314 0.0 0.0 0.00 0.00 0.00 60 1008.3
20260509202650 33 304 1.6 4.8 0.00 0.00 0.00 57 1008.3
20260509202149 32 4 1.6 3.2 0.00 0.00 0.00 60 1008.5
20260509201650 33 78 0.0 3.2 0.00 0.00 0.00 58 1008.5
20260509201151 33 0 1.6 6.4 0.00 0.00 0.00 58 1008.5
20260509200649 33 316 0.0 0.0 0.00 0.00 0.00 55 1008.6
20260509200149 32 356 0.0 0.0 0.00 0.00 0.00 54 1008.6
20260509195649 32 354 0.0 3.2 0.00 0.00 0.00 56 1008.6
20260509195149 32 267 0.0 0.0 0.00 0.00 0.00 59 1008.7
20260509194649 32 0 0.0 0.0 0.00 0.00 0.00 56 1008.8
20260509194149 31 73 1.6 3.2 0.00 0.00 0.00 57 1008.8
20260509193649 31 354 1.6 1.6 0.00 0.00 0.00 63 1008.8
20260509193149 31 295 0.0 0.0 0.00 0.00 0.00 60 1008.9
20260509192649 30 333 0.0 1.6 0.00 0.00 0.00 63 1008.9
20260509192149 31 248 3.2 3.2 0.00 0.00 0.00 59 1008.9
20260509191649 31 128 1.6 3.2 0.00 0.00 0.00 56 1009.0
20260509191149 31 279 1.6 1.6 0.00 0.00 0.00 59 1009.0
20260509190649 31 274 3.2 3.2 0.00 0.00 0.00 61 1009.0
20260509190149 31 256 0.0 1.6 0.00 0.00 0.00 60 1009.0
20260509185649 31 295 0.0 0.0 0.00 0.00 0.00 60 1009.0
20260509185150 31 265 1.6 3.2 0.00 0.00 0.00 60 1009.0
20260509184649 30 88 0.0 1.6 0.00 0.00 0.00 59 1009.0
20260509184150 30 37 3.2 4.8 0.00 0.00 0.00 64 1009.0
20260509183649 30 125 0.0 1.6 0.00 0.00 0.00 58 1009.0
20260509183150 30 279 1.6 1.6 0.00 0.00 0.00 61 1009.2
20260509182649 30 325 0.0 1.6 0.00 0.00 0.00 61 1009.3
20260509182150 30 197 0.0 1.6 0.00 0.00 0.00 63 1009.4
20260509181649 30 0 0.0 0.0 0.00 0.00 0.00 61 1009.6
20260509181150 29 251 0.0 1.6 0.00 0.00 0.00 66 1009.7
20260509180649 29 14 0.0 1.6 0.00 0.00 0.00 66 1009.7
20260509180149 28 337 1.6 3.2 0.00 0.00 0.00 65 1009.6
20260509175649 29 287 3.2 3.2 0.00 0.00 0.00 63 1009.6
20260509175150 29 105 0.0 3.2 0.00 0.00 0.00 63 1009.9
20260509174649 29 276 3.2 3.2 0.00 0.00 0.00 63 1010.1
20260509174149 29 124 0.0 1.6 0.00 0.00 0.00 62 1010.2
20260509173649 29 83 0.0 0.0 0.00 0.00 0.00 64 1010.3
20260509173149 28 107 3.2 3.2 0.00 0.00 0.00 63 1010.4
20260509172650 28 72 0.0 1.6 0.00 0.00 0.00 67 1010.4
20260509172149 28 273 1.6 3.2 0.00 0.00 0.00 67 1010.6
20260509171650 28 250 0.0 1.6 0.00 0.00 0.00 72 1010.6
20260509171150 28 261 1.6 3.2 0.00 0.00 0.00 72 1010.6
20260509170649 27 274 3.2 4.8 0.00 0.00 0.00 73 1010.7
20260509170149 27 226 0.0 0.0 0.00 0.00 0.00 72 1010.7
20260509165649 27 75 1.6 3.2 0.00 0.00 0.00 73 1010.8
20260509165149 27 322 1.6 3.2 0.00 0.00 0.00 76 1010.9
20260509164649 27 101 4.8 4.8 0.00 0.00 0.00 74 1010.7
20260509164149 27 61 0.0 0.0 0.00 0.00 0.00 79 1010.7
20260509163649 26 351 0.0 1.6 0.00 0.00 0.00 83 1010.7
20260509163149 26 116 1.6 3.2 0.00 0.00 0.00 83 1010.8
20260509162649 26 82 1.6 3.2 0.00 0.00 0.00 82 1010.9
20260509162149 26 0 0.0 0.0 0.00 0.00 0.00 83 1010.8
20260509161650 26 102 1.6 4.8 0.00 0.00 0.00 83 1010.7
20260509161149 26 304 0.0 1.6 0.00 0.00 0.00 85 1010.6
20260509160649 26 0 0.0 0.0 0.00 0.00 0.00 86 1010.6
20260509160150 26 123 0.0 3.2 0.00 0.00 0.00 86 1010.7
20260509155649 26 0 0.0 0.0 0.00 0.00 0.00 89 1010.7
20260509155150 26 0 0.0 0.0 0.00 0.00 0.00 89 1010.6
20260509154649 26 0 0.0 0.0 0.00 0.00 0.00 89 1010.6
20260509154149 26 283 0.0 0.0 0.00 0.00 0.00 89 1010.4
20260509153649 25 0 0.0 0.0 0.00 0.00 0.00 90 1010.4
20260509153149 25 0 0.0 0.0 0.00 0.00 0.00 90 1010.5
20260509152649 25 353 0.0 1.6 0.00 0.00 0.00 92 1010.4
20260509152149 25 128 0.0 1.6 0.00 0.00 0.00 91 1010.2
20260509151649 25 0 0.0 0.0 0.00 0.00 0.00 93 1010.4
20260509151149 25 301 1.6 1.6 0.00 0.00 0.00 93 1010.6
20260509150649 25 0 0.0 0.0 0.00 0.00 0.00 93 1010.5
20260509150149 25 4 0.0 1.6 0.00 0.00 0.00 93 1010.5
20260509145649 25 22 0.0 0.0 0.00 0.00 0.00 94 1010.4
20260509145149 25 303 0.0 0.0 0.00 0.00 0.00 94 1010.4
20260509144649 24 66 1.6 1.6 0.00 0.00 0.00 94 1010.0
20260509144150 24 94 1.6 3.2 0.00 0.00 0.00 94 1009.9
20260509143649 24 102 3.2 3.2 0.00 0.00 0.00 94 1010.0
20260509143150 24 73 1.6 3.2 0.00 0.00 0.00 95 1009.9
20260509142651 24 122 3.2 3.2 0.00 0.00 0.00 95 1009.7
20260509142151 24 108 0.0 1.6 0.00 0.00 0.00 96 1009.6
20260509141650 24 121 0.0 0.0 0.00 0.00 0.00 96 1009.8
20260509141150 24 105 0.0 1.6 0.00 0.00 0.00 96 1009.7
20260509140650 24 0 0.0 0.0 0.00 0.00 0.00 96 1009.9
20260509140149 24 0 0.0 0.0 0.00 0.00 0.00 96 1009.7
20260509135650 24 0 0.0 0.0 0.00 0.00 0.00 97 1009.6
20260509135150 24 88 0.0 0.0 0.00 0.00 0.00 97 1009.6
20260509134649 24 0 0.0 0.0 0.00 0.00 0.00 97 1009.8
20260509134149 24 0 0.0 0.0 0.00 0.00 0.00 97 1010.0
20260509133649 24 0 0.0 0.0 0.00 0.00 0.00 97 1010.2
20260509133149 24 0 0.0 0.0 0.00 0.00 0.00 97 1010.2
20260509132652 23 0 0.0 0.0 0.00 0.00 0.00 98 1010.4
20260509132149 23 268 0.0 0.0 0.00 0.00 0.00 97 1010.6
20260509131649 23 0 0.0 0.0 0.00 0.00 0.00 98 1010.9
20260509131150 23 0 0.0 0.0 0.00 0.00 0.00 98 1010.9
20260509130649 23 0 0.0 0.0 0.00 0.00 0.00 98 1011.0
20260509130149 23 0 0.0 0.0 0.00 0.00 0.00 98 1011.0
20260509125650 23 282 1.6 1.6 0.00 0.00 0.00 98 1010.9
20260509125150 23 318 0.0 1.6 0.00 0.00 0.00 98 1010.7
20260509124649 23 0 0.0 0.0 0.00 0.00 0.00 98 1010.6
20260509124149 23 0 0.0 0.0 0.00 0.00 0.00 98 1010.7
20260509123652 23 0 0.0 0.0 0.00 0.00 0.00 98 1010.8
20260509123149 23 238 0.0 1.6 0.00 0.00 0.00 98 1010.8
20260509122649 23 271 1.6 1.6 0.00 0.00 0.00 98 1010.7
20260509122151 23 0 0.0 0.0 0.00 0.00 0.00 98 1010.7
20260509121649 23 0 0.0 0.0 0.00 0.00 0.00 98 1010.8
20260509121149 23 0 0.0 0.0 0.00 0.00 0.00 98 1010.8
20260509120650 23 0 0.0 0.0 0.00 0.00 0.00 98 1010.8
20260509120149 23 0 0.0 0.0 0.00 0.00 0.00 98 1011.0
20260509115651 23 0 0.0 0.0 0.00 0.00 0.00 98 1010.8
20260509115149 23 0 0.0 0.0 0.00 0.00 0.00 98 1010.7
20260509114650 23 0 0.0 0.0 0.00 0.00 0.00 97 1010.6
20260509114149 23 0 0.0 0.0 0.00 0.00 0.00 97 1010.3
20260509113649 23 0 0.0 0.0 0.00 0.00 0.00 97 1010.1
20260509113149 23 0 0.0 0.0 0.00 0.00 0.00 97 1009.9
20260509112650 23 0 0.0 0.0 0.00 0.00 0.00 97 1010.0
20260509112149 23 0 0.0 0.0 0.00 0.00 0.00 97 1010.0
20260509111649 23 0 0.0 0.0 0.00 0.00 0.00 97 1010.1
20260509111149 23 0 0.0 0.0 0.00 0.00 0.00 97 1010.0
20260509110650 23 0 0.0 0.0 0.00 0.00 0.00 97 1010.0
20260509110150 23 0 0.0 0.0 0.00 0.00 0.00 97 1010.1
20260509105649 23 0 0.0 0.0 0.00 0.00 0.00 97 1010.2
20260509105149 23 0 0.0 0.0 0.00 0.00 0.00 97 1010.2